Probability
0 0 0 0 0 0 0 0 0 0 0 0 0 0 0 0 0 1 0 2 7 14 16 9 6 6 7 9 13 15 17 15 10 7 4 1 0 0 0 0 0 0 0 0 0 0 0 0 0
0 0 0 0 0 0 0 0 0 0 0 0 0 0 0 0 1 1 1 3 11 19 19 11 7 8 9 10 12 13 13 11 7 4 2 1 0 0 0 0 0 0 0 0 0 0 0 0 0
0 0 0 0 0 0 0 0 0 0 0 0 0 0 0 1 1 1 2 7 17 24 23 15 11 12 12 12 12 11 10 8 5 2 1 1 0 0 0 0 0 0 0 0 0 0 0 0 0
0 0 0 0 0 0 0 0 0 0 0 0 0 0 1 2 2 3 6 13 22 26 24 20 17 16 15 15 15 13 10 8 6 4 1 1 0 0 0 0 0 0 0 0 0 0 0 0 0
0 0 0 0 0 0 0 0 0 0 0 0 0 0 1 4 8 9 12 18 26 29 28 26 24 18 15 16 18 17 13 9 7 4 2 1 0 0 0 0 0 0 0 0 0 0 0 0 0
0 0 0 0 0 0 0 0 0 0 0 0 1 2 4 9 16 19 20 24 30 35 36 33 27 20 15 15 18 19 16 11 7 3 1 0 0 0 0 0 0 0 0 0 0 0 0 0 0
0 0 0 0 0 0 0 0 0 0 0 1 3 5 8 17 25 29 31 33 36 40 41 37 29 21 17 16 18 19 17 12 6 2 1 0 0 0 0 0 0 0 0 0 0 0 0 0 0
0 0 0 0 0 0 0 0 0 0 0 2 5 6 12 27 41 44 43 42 42 41 40 36 31 24 20 18 17 18 17 13 6 2 1 0 0 0 0 0 0 0 0 0 0 0 0 0 0
0 0 0 0 0 0 0 0 1 1 2 4 8 12 23 42 57 57 52 48 47 43 38 35 34 31 26 22 20 20 19 15 9 5 3 2 1 1 0 0 0 0 0 0 0 0 0 0 0
0 0 0 0 0 0 1 1 2 3 4 6 12 24 40 54 60 60 57 54 53 48 41 34 34 37 34 29 27 27 25 20 13 9 7 5 3 2 2 1 1 1 1 1 1 1 0 0 0
0 0 0 0 0 1 2 3 4 4 4 6 15 32 49 56 55 53 54 56 55 52 44 34 30 34 36 35 35 35 33 27 18 12 8 6 4 4 3 3 2 2 2 2 2 1 0 0 0
0 0 0 1 1 2 3 5 6 6 5 6 15 33 48 52 50 48 49 51 52 51 46 36 29 30 34 37 39 39 37 31 21 13 8 7 7 5 4 3 2 2 3 3 3 2 1 1 0
0 0 1 2 2 2 3 5 6 7 9 11 19 33 44 46 45 44 45 44 44 45 43 37 31 32 37 40 40 39 38 32 23 14 10 9 9 5 3 3 2 2 2 3 3 3 2 2 1
0 0 1 1 1 1 3 4 6 9 12 17 23 31 39 42 41 41 41 40 38 38 39 36 33 34 39 42 42 39 37 34 26 20 15 12 8 4 2 2 2 2 2 2 2 2 2 2 2
0 0 0 0 0 1 2 4 8 12 14 19 23 27 33 38 40 39 39 37 36 35 36 36 33 31 33 37 39 36 34 32 30 25 20 14 8 3 0 1 1 1 1 2 1 1 1 1 1
0 0 0 0 0 0 1 4 10 14 16 19 23 25 31 37 39 37 36 36 35 33 34 34 31 27 26 29 31 29 28 27 27 26 21 15 10 4 2 1 0 0 1 2 2 1 0 0 0
0 0 0 0 0 0 1 4 9 12 16 20 23 25 29 33 32 29 30 34 35 35 33 31 27 24 23 24 23 21 20 20 20 20 16 13 10 8 6 3 1 0 1 2 2 1 0 0 0
0 0 0 0 0 0 1 5 8 12 16 19 22 23 23 23 21 21 24 30 35 34 32 28 24 22 22 22 20 18 16 15 16 14 10 8 8 8 7 4 1 1 1 1 1 0 0 0 0
0 0 0 0 0 1 4 7 10 13 16 19 20 18 16 13 13 17 21 27 31 31 27 25 23 23 22 22 21 19 16 14 14 12 6 3 5 7 6 4 3 2 2 2 2 1 1 1 1
0 0 0 0 0 2 4 7 9 10 13 16 17 14 12 10 11 15 19 23 26 27 24 22 23 23 21 20 20 19 15 13 12 10 5 2 2 4 5 4 3 3 3 3 3 3 3 2 1
0 0 0 0 0 1 2 3 4 4 6 9 11 10 10 10 10 12 14 17 20 23 22 21 21 21 19 17 16 15 13 11 10 7 4 1 0 1 3 3 3 3 3 3 3 3 3 2 1
0 0 0 1 0 0 1 1 1 1 2 4 6 7 9 9 8 8 10 11 14 18 19 18 18 17 16 14 13 12 11 9 7 5 3 2 1 2 3 3 3 3 3 3 3 3 3 1 0
0 0 0 0 0 0 0 0 0 0 1 1 3 5 7 8 7 7 7 8 10 13 15 15 14 13 13 11 11 10 9 7 5 4 3 2 2 3 3 3 3 3 3 2 2 2 2 1 0
0 0 0 0 0 0 0 0 0 0 0 0 1 2 3 6 7 7 6 7 8 10 11 11 10 10 10 10 9 8 7 5 3 3 3 2 3 3 2 1 2 2 1 1 1 1 1 0 0
0 0 0 0 0 0 0 0 1 0 0 0 0 0 1 3 5 5 5 5 5 6 8 8 8 7 8 7 6 5 5 4 3 3 3 3 3 2 1 1 1 1 0 0 0 0 0 0 0
0 0 0 0 0 0 0 1 1 0 0 0 0 0 0 1 2 2 2 2 2 3 4 5 5 5 4 3 2 2 2 3 3 3 3 3 2 1 1 0 0 0 0 0 0 0 0 0 0
0 0 0 0 0 0 0 1 0 0 0 0 0 1 0 0 0 0 0 0 1 2 2 3 3 2 1 1 0 0 2 3 3 3 2 1 1 0 0 0 0 0 0 0 0 0 0 0 0
0 0 0 0 0 0 0 0 0 0 0 0 0 0 0 0 0 0 0 0 1 1 1 1 1 0 0 0 0 1 2 3 2 1 1 0 0 0 0 0 0 0 0 0 0 0 0 0 0
0 0 0 0 0 0 0 0 0 0 0 0 0 0 0 0 0 0 0 0 0 0 0 0 0 0 0 0 0 1 2 2 1 0 0 0 0 0 0 0 0 0 0 0 0 0 0 0 0
0 0 0 0 0 0 0 0 0 0 0 0 0 0 0 0 0 0 0 0 0 0 0 0 0 0 0 0 0 1 1 1 0 0 0 0 0 0 0 0 0 0 0 0 0 0 0 0 0
Wind_Speed
7 3 2 3 6 4 3 5 3 2 1 1 2 3 5 5 5 4 1 8 13 14 14 16 17 17 17 17 17 18 18 18 18 18 18 17 16 15 15 14 14 13 13 13 13 13 13 13 14
3 1 4 5 5 1 5 5 3 3 2 2 1 2 2 2 1 0 2 7 14 15 13 14 18 17 17 17 17 17 18 19 18 17 17 17 16 15 15 14 14 13 13 13 13 13 13 13 13
2 3 5 5 5 6 6 4 3 1 2 3 2 1 2 2 1 1 4 10 13 13 11 14 20 18 18 18 17 17 18 18 18 17 17 16 15 14 14 14 13 13 12 12 13 13 12 12 12
4 5 6 4 5 6 6 4 1 2 1 2 3 2 2 1 2 3 9 13 14 12 11 13 19 18 17 17 17 16 17 17 16 16 15 15 14 13 13 13 13 12 12 12 12 11 11 11 10
5 5 4 0 5 5 5 5 3 2 2 3 3 3 2 1 3 8 12 13 13 10 9 11 17 17 17 17 17 16 16 15 15 14 14 13 12 11 11 11 11 11 11 10 10 10 9 9 8
6 5 4 3 5 5 5 4 2 3 3 3 4 3 2 2 6 8 11 11 11 11 9 10 16 18 17 17 16 15 14 13 13 13 12 12 11 10 10 10 10 10 9 9 9 8 8 7 6
6 5 4 4 3 4 4 2 3 3 4 5 5 4 1 1 5 9 10 10 10 10 9 8 10 13 15 15 14 13 13 13 12 12 12 11 11 10 10 9 9 8 8 8 7 7 6 5 4
5 6 3 2 3 5 4 2 2 3 4 2 4 6 4 4 8 10 10 9 10 8 9 8 7 8 8 9 14 14 13 13 13 13 12 12 11 10 10 8 8 8 7 6 6 5 4 3 2
5 6 2 4 5 5 3 2 3 2 2 1 2 2 4 11 12 12 10 8 9 9 7 8 8 7 7 7 10 12 13 12 12 10 12 10 4 4 5 6 7 7 6 5 4 3 2 1 0
5 4 7 6 5 4 4 3 3 2 1 1 1 2 9 13 13 14 14 13 12 12 11 8 8 8 8 7 6 5 5 6 5 4 5 4 3 3 4 4 7 7 6 5 4 3 2 0 0
4 6 6 6 6 4 4 4 2 3 4 6 6 7 11 12 11 10 10 11 11 10 10 9 8 8 8 5 5 4 3 4 4 5 5 4 3 2 2 1 2 2 3 1 1 0 0 0 0
3 6 5 5 3 3 4 3 1 4 8 5 6 9 11 10 10 9 10 10 9 10 10 9 9 8 7 5 5 5 4 4 4 4 5 4 3 3 2 1 1 1 1 1 1 0 1 1 1
3 5 4 6 6 4 3 3 2 4 6 2 3 7 10 10 7 6 7 7 8 9 9 9 8 8 7 6 5 6 5 5 5 4 5 5 4 3 3 2 1 1 1 1 1 1 1 1 1
3 4 6 6 4 3 2 1 1 5 4 1 5 7 7 7 7 6 6 6 6 6 7 8 9 8 6 5 5 5 4 4 4 4 5 6 4 3 3 2 2 2 1 1 1 1 1 1 1
2 4 7 4 2 2 2 4 2 4 3 2 4 5 5 5 5 6 6 6 5 5 5 6 7 6 6 5 4 4 3 4 4 3 4 4 4 4 3 2 2 2 2 2 1 1 0 0 1
3 4 5 7 4 3 3 1 5 5 2 2 3 4 5 5 5 4 4 4 5 5 5 6 6 6 5 4 3 2 3 3 3 2 2 3 4 4 3 2 2 1 2 2 2 1 1 1 2
5 3 4 7 4 3 4 1 4 5 5 5 5 5 6 6 6 5 4 3 3 4 5 5 4 6 5 5 3 3 3 3 2 2 2 2 3 4 3 2 2 2 2 2 1 1 1 1 2
3 3 4 5 4 4 4 3 4 5 6 5 5 6 7 6 5 4 4 3 3 3 3 3 3 4 4 4 3 3 4 3 3 3 3 4 3 4 3 2 2 2 2 2 2 2 2 2 2
3 3 6 6 3 2 4 5 5 5 6 6 5 6 6 5 5 6 5 4 4 4 4 3 3 3 3 3 4 4 3 3 3 3 5 4 4 4 4 2 2 2 2 2 2 2 3 2 1
4 3 4 4 1 3 6 7 6 6 6 5 6 6 6 6 7 7 7 6 6 6 5 3 3 2 2 2 2 3 3 3 3 4 6 6 5 4 4 4 3 3 2 3 3 2 2 2 2
4 5 5 3 1 3 5 3 3 5 6 7 8 7 7 7 7 8 8 7 7 6 5 3 4 3 2 3 4 4 4 3 3 5 5 6 6 7 6 6 5 4 4 3 3 2 2 2 2
5 6 6 4 3 2 2 2 2 3 4 6 7 7 8 8 8 8 8 8 8 6 5 5 4 3 3 3 5 6 4 4 4 4 5 7 7 7 7 7 7 6 5 5 4 4 3 3 2
5 2 1 2 3 2 1 4 2 4 3 3 4 6 7 8 8 8 8 7 7 7 6 5 4 5 4 3 4 6 6 6 6 7 9 8 7 8 8 8 7 7 6 7 7 6 6 4 3
1 3 4 5 4 1 2 3 3 3 4 5 4 6 7 7 8 8 8 8 8 7 7 6 6 6 6 6 6 7 9 9 9 8 8 7 6 7 9 9 8 8 7 8 8 8 9 7 7
3 5 4 5 4 2 1 3 2 1 4 6 6 6 7 7 7 8 9 8 8 8 8 7 7 8 7 8 8 8 9 10 10 9 8 7 6 6 8 8 8 8 8 9 8 9 9 8 9
1 5 6 3 3 3 2 1 1 3 6 7 7 7 7 7 7 8 8 8 8 8 8 7 7 8 9 9 9 9 9 8 7 8 8 7 6 6 7 8 9 9 9 9 8 8 8 8 8
2 1 3 5 2 1 1 1 2 5 7 8 7 7 7 7 7 7 7 8 8 8 8 8 8 9 9 9 10 10 10 10 10 10 9 8 7 7 9 9 9 9 9 9 8 8 8 7 7
2 5 4 4 4 1 2 3 4 6 6 7 7 6 6 6 6 7 7 7 7 8 8 9 10 10 10 10 10 10 10 11 10 10 10 9 9 8 9 9 9 9 9 8 8 7 7 8 6
1 3 4 3 3 4 2 3 1 6 8 9 8 7 6 6 6 6 6 6 7 8 9 9 10 10 10 11 11 11 11 10 10 10 10 9 8 8 9 8 8 8 8 7 7 7 7 8 7
1 2 4 3 2 3 3 3 3 4 7 9 9 8 7 7 7 7 7 7 8 9 9 9 9 10 10 10 11 10 10 10 10 10 9 9 9 8 8 8 8 8 7 7 7 7 7 7 6
Wind_Direction
311 315 106 75 56 51 251 250 238 278 248 202 161 154 161 162 174 217 275 144 136 140 146 152 153 152 147 139 133 129 127 126 125 125 126 127 128 129 130 130 130 129 128 126 124 123 122 120 120
302 16 71 69 98 201 262 248 242 234 191 160 144 146 153 202 233 229 83 133 137 140 145 152 155 153 148 141 136 134 132 131 130 130 130 130 131 131 132 132 132 131 130 129 128 126 125 124 124
323 60 93 92 146 190 229 234 227 280 181 173 174 196 175 190 201 167 145 136 133 138 144 155 156 154 149 144 141 138 137 136 135 134 134 133 133 133 134 135 134 134 133 132 131 129 128 127 126
68 50 58 101 209 219 220 242 243 307 303 193 167 210 203 183 172 149 136 136 135 139 145 157 157 155 151 148 145 143 141 140 139 137 136 136 135 135 137 138 137 137 136 135 132 131 130 130 129
58 78 82 177 238 249 247 251 239 232 232 204 178 206 241 47 110 126 133 136 136 138 145 156 157 156 155 154 151 148 145 143 141 140 139 139 138 139 140 142 142 140 139 137 134 133 131 129 126
59 70 107 224 255 265 263 240 230 241 228 210 185 189 251 121 117 124 130 132 135 141 145 155 159 159 160 159 157 152 148 145 144 144 144 143 143 144 146 146 146 144 142 140 139 137 133 128 122
106 106 161 203 251 274 260 230 208 218 224 217 177 171 238 146 133 125 123 122 127 138 146 152 159 162 163 161 159 154 151 150 150 149 150 150 151 153 154 153 151 150 149 148 148 146 143 134 123
121 106 137 222 229 257 268 308 265 198 238 231 154 179 208 177 139 121 116 120 127 137 150 153 154 153 155 159 163 161 159 159 159 158 159 160 160 161 162 159 160 161 162 162 162 160 157 148 131
87 80 185 222 212 250 276 309 295 259 224 232 209 204 165 140 136 131 129 132 140 149 158 161 157 153 153 156 169 166 167 168 166 166 167 163 156 157 164 170 174 175 178 181 182 184 187 187 301
90 140 222 221 210 237 281 265 265 299 292 249 284 84 130 143 152 154 155 158 161 165 169 170 167 161 158 166 161 157 161 163 162 162 164 150 143 159 166 182 191 191 193 199 205 215 224 215 17
149 191 231 244 231 237 268 270 231 189 250 223 204 173 154 157 161 163 158 159 163 165 170 176 174 167 164 161 156 156 153 154 159 164 158 147 144 156 160 152 203 209 206 189 212 266 47 50 270
185 238 229 255 235 225 236 250 240 206 236 233 196 171 159 163 164 164 160 160 159 167 175 175 176 174 172 162 161 161 161 164 168 169 160 156 161 172 171 169 176 173 166 163 154 177 287 279 276
219 260 257 251 275 236 220 226 215 261 270 317 145 155 166 163 157 147 147 155 161 173 173 174 177 180 176 167 169 172 173 174 172 169 171 169 172 184 181 178 174 189 181 181 195 221 260 280 302
245 258 281 282 271 242 189 284 123 285 322 61 134 152 163 159 148 140 141 155 162 172 175 173 180 181 177 177 175 174 175 171 165 173 180 176 176 179 182 180 175 187 184 188 193 197 213 297 346
286 310 321 310 300 268 113 1 344 303 352 88 129 133 133 127 133 147 154 156 163 177 174 174 179 170 171 177 176 171 168 161 168 174 176 178 173 172 171 172 173 189 174 170 149 115 70 10 35
17 18 334 308 332 317 113 296 334 342 50 84 95 102 98 89 96 98 108 133 157 166 170 173 177 157 160 156 156 158 151 151 153 153 157 170 165 160 158 160 171 165 141 137 130 113 91 47 48
23 0 305 310 339 20 77 83 348 16 68 73 73 81 79 73 62 56 64 92 137 148 153 152 148 153 159 149 138 129 118 120 118 111 111 126 136 143 139 147 145 126 113 107 119 89 102 89 74
280 296 295 298 319 48 79 94 35 42 63 74 73 73 71 66 52 48 52 64 80 104 117 130 130 137 146 140 128 113 103 103 100 97 94 101 112 117 120 119 103 103 103 93 93 99 79 79 88
230 249 274 277 278 78 101 92 52 51 59 63 67 66 68 60 40 39 43 56 71 74 79 89 99 122 139 149 157 152 138 124 103 87 83 88 98 107 107 110 98 94 100 106 114 116 101 72 60
213 250 266 292 341 113 113 89 65 58 59 61 66 59 58 57 47 40 39 44 51 62 62 72 94 119 138 143 148 136 125 113 103 86 71 63 70 77 92 94 89 79 87 81 75 102 128 84 37
234 210 224 218 36 81 114 90 86 76 75 66 61 59 51 50 44 39 37 35 39 41 44 51 69 81 94 101 102 110 106 101 91 82 71 60 68 75 79 84 85 77 75 73 59 63 117 124 66
263 235 205 186 145 211 171 158 165 120 78 64 58 55 51 45 45 43 38 35 34 32 35 43 60 72 78 103 124 128 124 111 97 93 81 63 59 68 75 80 80 77 73 69 59 51 60 103 115
231 271 176 176 153 118 50 140 201 150 137 106 78 65 57 47 46 44 39 34 31 29 35 35 46 58 66 85 106 114 113 107 100 92 84 72 59 56 63 69 74 74 73 71 66 63 62 64 77
204 52 53 52 76 86 250 149 202 192 176 145 112 80 64 53 49 46 42 40 35 30 36 42 53 52 58 72 82 97 109 113 108 97 91 79 69 60 59 67 69 69 70 69 68 67 67 67 70
68 79 31 8 21 256 280 126 200 159 137 138 128 98 72 57 48 42 37 37 36 30 31 40 56 59 61 72 77 88 99 105 105 102 96 89 79 69 59 66 70 71 70 70 70 70 68 65 69
191 137 155 190 214 272 335 135 151 89 103 105 106 98 84 67 55 49 39 36 37 34 33 42 57 68 69 74 76 79 86 91 92 92 93 87 82 78 74 71 71 71 72 72 70 71 68 66 68
135 144 157 131 134 136 240 132 136 122 120 118 112 100 87 75 64 59 49 42 42 41 41 46 59 68 71 77 80 77 79 84 89 89 86 85 84 84 76 76 75 71 71 71 73 73 69 69 67
108 142 97 116 150 213 242 209 198 180 163 142 128 111 93 83 71 60 55 51 49 50 52 54 58 66 69 71 77 82 79 81 86 87 86 83 80 80 79 75 73 71 70 71 73 72 69 71 63
53 82 99 111 149 156 209 254 229 183 167 151 137 121 108 95 82 69 63 60 60 59 59 60 64 68 70 74 79 81 82 84 83 82 82 81 78 76 77 76 75 72 69 69 74 72 70 71 64
131 157 148 148 202 164 164 263 1 134 136 135 130 122 111 101 88 78 70 69 68 65 63 65 66 70 73 77 80 80 81 82 83 82 79 79 78 74 76 77 75 72 68 66 72 74 69 70 67